| time (UTC) | temp F | wind direction | speed MPH | gust MPH | rain 1hr in | rain 24hr in | rain mn in | humidity % | barometer mb |
| 20260502213034 | 61 | 51 | 10.0 | 16.0 | 0.00 | 0.00 | 0.00 | 38 | 1009.3 |
| 20260502211534 | 60 | 28 | 8.0 | 14.0 | 0.00 | 0.00 | 0.00 | 39 | 1009.3 |
| 20260502210037 | 61 | 326 | 6.0 | 16.0 | 0.00 | 0.00 | 0.00 | 37 | 1009.3 |
| 20260502204532 | 61 | 310 | 5.0 | 17.0 | 0.00 | 0.00 | 0.00 | 38 | 1009.1 |
| 20260502203046 | 60 | 290 | 1.0 | 9.0 | 0.00 | 0.00 | 0.00 | 40 | 1009.3 |
| 20260502201538 | 60 | 350 | 10.0 | 19.0 | 0.00 | 0.00 | 0.00 | 40 | 1009.2 |
| 20260502200034 | 60 | 342 | 6.0 | 12.0 | 0.00 | 0.00 | 0.00 | 41 | 1009.5 |
| 20260502194535 | 59 | 52 | 2.0 | 13.0 | 0.00 | 0.00 | 0.00 | 42 | 1009.4 |
| 20260502193035 | 59 | 11 | 5.0 | 15.0 | 0.00 | 0.00 | 0.00 | 43 | 1009.8 |
| 20260502191536 | 60 | 11 | 4.0 | 18.0 | 0.00 | 0.00 | 0.00 | 43 | 1009.9 |
| 20260502190044 | 58 | 334 | 6.0 | 12.0 | 0.00 | 0.00 | 0.00 | 43 | 1010.1 |
| 20260502184537 | 58 | 26 | 6.0 | 13.0 | 0.00 | 0.00 | 0.00 | 43 | 1010.5 |
| 20260502183033 | 58 | 299 | 3.0 | 10.0 | 0.00 | 0.00 | 0.00 | 45 | 1010.8 |
| 20260502181539 | 58 | 333 | 7.0 | 12.0 | 0.00 | 0.00 | 0.00 | 44 | 1011.0 |
| 20260502163046 | 56 | 171 | 6.0 | 12.0 | 0.00 | 0.00 | 0.00 | 46 | 1011.9 |
| 20260502161534 | 56 | 34 | 4.0 | 11.0 | 0.00 | 0.00 | 0.00 | 48 | 1011.9 |
| 20260502151552 | 55 | 24 | 4.0 | 10.0 | 0.00 | 0.00 | 0.00 | 51 | 1012.3 |
| 20260502123038 | 49 | 9 | 11.0 | 20.0 | 0.00 | 0.00 | 0.00 | 63 | 1011.8 |
| 20260502121538 | 49 | 302 | 9.0 | 17.0 | 0.00 | 0.00 | 0.00 | 64 | 1011.6 |
| 20260502114543 | 49 | 339 | 3.0 | 13.0 | 0.00 | 0.00 | 0.00 | 65 | 1011.9 |
| 20260502113041 | 49 | 334 | 7.0 | 13.0 | 0.00 | 0.00 | 0.00 | 66 | 1012.1 |
| 20260502111546 | 49 | 30 | 7.0 | 15.0 | 0.00 | 0.00 | 0.00 | 67 | 1012.0 |
| 20260502110053 | 49 | 348 | 7.0 | 19.0 | 0.00 | 0.00 | 0.00 | 67 | 1012.0 |
| 20260502104545 | 50 | 329 | 9.0 | 15.0 | 0.00 | 0.00 | 0.00 | 68 | 1011.8 |
| 20260502103043 | 50 | 19 | 5.0 | 11.0 | 0.00 | 0.00 | 0.00 | 69 | 1011.5 |
| 20260502101558 | 50 | 23 | 5.0 | 10.0 | 0.00 | 0.00 | 0.00 | 69 | 1011.0 |
| 20260502100123 | 51 | 5 | 3.0 | 11.0 | 0.00 | 0.00 | 0.00 | 71 | 1010.8 |
| 20260502090132 | 52 | 332 | 4.0 | 11.0 | 0.00 | 0.00 | 0.00 | 74 | 1010.2 |
| 20260502070111 | 53 | 31 | 3.0 | 5.0 | 0.00 | 0.00 | 0.00 | 77 | 1009.7 |
| 20260502064606 | 54 | 32 | 0.0 | 0.0 | 0.00 | 0.00 | 0.00 | 77 | 1009.9 |
| 20260502063108 | 54 | 43 | 0.0 | 0.0 | 0.00 | 0.00 | 0.00 | 76 | 1010.2 |
| 20260502061612 | 55 | 25 | 0.0 | 0.0 | 0.00 | 0.00 | 0.00 | 75 | 1010.3 |
| 20260502060112 | 55 | 28 | 0.0 | 0.0 | 0.00 | 0.00 | 0.00 | 74 | 1010.8 |
| 20260502055018 | 55 | 65 | 0.0 | 4.0 | 0.00 | 0.00 | 0.00 | 73 | 1010.6 |
| 20260502053029 | 55 | 32 | 2.0 | 5.0 | 0.00 | 0.00 | 0.00 | 72 | 1010.3 |
| 20260502051532 | 56 | 10 | 3.0 | 10.0 | 0.00 | 0.00 | 0.00 | 70 | 1010.4 |
| 20260502050032 | 57 | 342 | 6.0 | 10.0 | 0.00 | 0.00 | 0.00 | 66 | 1010.2 |
| 20260502044530 | 57 | 323 | 3.0 | 6.0 | 0.00 | 0.00 | 0.00 | 64 | 1010.2 |
| 20260502043031 | 57 | 340 | 1.0 | 4.0 | 0.00 | 0.00 | 0.00 | 61 | 1010.3 |
| 20260502041533 | 56 | 351 | 2.0 | 5.0 | 0.00 | 0.00 | 0.00 | 61 | 1010.2 |
| 20260502040038 | 56 | 343 | 2.0 | 6.0 | 0.00 | 0.00 | 0.00 | 62 | 1010.1 |
| 20260502034536 | 57 | 15 | 1.0 | 4.0 | 0.00 | 0.00 | 0.00 | 62 | 1009.6 |
| 20260502033034 | 59 | 87 | 0.0 | 2.0 | 0.00 | 0.00 | 0.00 | 56 | 1009.1 |
| 20260502031539 | 59 | 149 | 0.0 | 6.0 | 0.00 | 0.00 | 0.00 | 54 | 1009.1 |
| 20260502030034 | 60 | 189 | 2.0 | 6.0 | 0.00 | 0.00 | 0.00 | 52 | 1008.8 |
| 20260502024533 | 60 | 215 | 2.0 | 6.0 | 0.00 | 0.00 | 0.00 | 51 | 1008.9 |
| 20260502023036 | 60 | 196 | 4.0 | 6.0 | 0.00 | 0.00 | 0.00 | 50 | 1008.9 |
| 20260502021535 | 61 | 195 | 5.0 | 11.0 | 0.00 | 0.00 | 0.00 | 50 | 1009.0 |
| 20260502020041 | 61 | 173 | 2.0 | 6.0 | 0.00 | 0.00 | 0.00 | 48 | 1008.8 |
| 20260502014534 | 62 | 171 | 3.0 | 6.0 | 0.00 | 0.00 | 0.00 | 47 | 1008.8 |
| 20260502013033 | 62 | 214 | 2.0 | 8.0 | 0.00 | 0.00 | 0.00 | 46 | 1008.7 |
| 20260502011535 | 63 | 148 | 2.0 | 6.0 | 0.00 | 0.00 | 0.00 | 44 | 1008.6 |
| 20260502010038 | 64 | 176 | 1.0 | 5.0 | 0.00 | 0.00 | 0.00 | 43 | 1008.3 |
| 20260502004535 | 64 | 176 | 4.0 | 7.0 | 0.00 | 0.00 | 0.00 | 42 | 1008.0 |
| 20260502003033 | 65 | 150 | 3.0 | 9.0 | 0.00 | 0.00 | 0.00 | 41 | 1007.8 |
| 20260502001541 | 66 | 175 | 4.0 | 7.0 | 0.00 | 0.00 | 0.00 | 39 | 1007.7 |
| 20260502000041 | 67 | 121 | 3.0 | 6.0 | 0.00 | 0.00 | 0.00 | 38 | 1007.9 |
| 20260501234536 | 67 | 174 | 5.0 | 9.0 | 0.00 | 0.00 | 0.00 | 37 | 1007.7 |
| 20260501233035 | 68 | 180 | 7.0 | 12.0 | 0.00 | 0.00 | 0.00 | 36 | 1007.3 |
| 20260501231540 | 69 | 223 | 3.0 | 14.0 | 0.00 | 0.00 | 0.00 | 35 | 1007.5 |
| 20260501230038 | 68 | 195 | 6.0 | 14.0 | 0.00 | 0.00 | 0.00 | 35 | 1007.5 |
| 20260501224539 | 69 | 229 | 6.0 | 14.0 | 0.00 | 0.00 | 0.00 | 34 | 1007.7 |
| 20260501223035 | 69 | 199 | 11.0 | 21.0 | 0.00 | 0.00 | 0.00 | 34 | 1007.7 |
| 20260501221539 | 69 | 194 | 6.0 | 16.0 | 0.00 | 0.00 | 0.00 | 33 | 1007.8 |
| 20260501220046 | 69 | 144 | 9.0 | 17.0 | 0.00 | 0.00 | 0.00 | 31 | 1008.0 |
| 20260501214551 | 68 | 193 | 8.0 | 16.0 | 0.00 | 0.00 | 0.00 | 31 | 1008.1 |